When you browse on this site, cookies collect data to enhance your experience and personalize the content and advertising you see.
Visit our Privacy Policy to learn more. By continuing to use the site, you agree to this use of cookies and data.
  • In Czech Republic
  • List of Countries
  • For 7 days
  • Water Temperature
  • Satellite Maps
  • Weather Map
  • Weather Widgets
  • user-avatar
    Login

    Hourly Weather Igls

    Today, 25 June, Tuesday

    Time Temperature Precipitation Wind Pressure Humidity
    00:00 +19°C° 0 mm 1 mps 690 mmHg 86%
    01:00 +18°C° 0 mm 2 mps 690 mmHg 83%
    02:00 +18°C° 0 mm 2 mps 689 mmHg 84%
    03:00 +18°C° 0 mm 2 mps 689 mmHg 84%
    04:00 +18°C° 0 mm 2 mps 689 mmHg 85%
    05:00 +20°C° 0 mm 2 mps 690 mmHg 80%
    06:00 +23°C° 0 mm 1 mps 690 mmHg 74%
    07:00 +25°C° 0 mm 1 mps 691 mmHg 65%
    08:00 +27°C° 0 mm 1 mps 691 mmHg 55%
    09:00 +30°C° 0 mm 1 mps 691 mmHg 45%
    10:00 +33°C° 0 mm 1 mps 692 mmHg 35%
    11:00 +33°C° 0 mm 1 mps 692 mmHg 32%
    12:00 +34°C° 0 mm 1 mps 692 mmHg 30%
    13:00 +35°C° 0 mm 2 mps 693 mmHg 27%
    14:00 +35°C° 0 mm 2 mps 692 mmHg 29%
    15:00 +35°C° 0 mm 2 mps 692 mmHg 31%
    16:00 +34°C° 0 mm 2 mps 692 mmHg 33%
    17:00 +31°C° 0 mm 2 mps 692 mmHg 44%
    18:00 +30°C° 0 mm 1 mps 692 mmHg 54%
    19:00 +28°C° 0 mm 1 mps 692 mmHg 64%
    20:00 +26°C° 0 mm 1 mps 692 mmHg 68%
    21:00 +24°C° 0 mm 1 mps 692 mmHg 72%
    22:00 +22°C° 0 mm 1 mps 692 mmHg 75%
    23:00 +21°C° 0 mm 1 mps 692 mmHg 73%

    Tomorrow, 26 June, Wednesday

    Time Temperature Precipitation Wind Pressure Humidity
    00:00 +21°C° 0 mm 1 mps 692 mmHg 71%
    01:00 +21°C° 0 mm 1 mps 692 mmHg 69%
    02:00 +20°C° 0 mm 1 mps 692 mmHg 66%
    03:00 +20°C° 0 mm 1 mps 691 mmHg 63%
    04:00 +20°C° 0 mm 1 mps 691 mmHg 61%
    05:00 +22°C° 0 mm 1 mps 692 mmHg 56%
    06:00 +25°C° 0 mm 1 mps 693 mmHg 52%
    07:00 +27°C° 0 mm 1 mps 693 mmHg 47%
    08:00 +29°C° 0 mm 1 mps 694 mmHg 40%
    09:00 +32°C° 0 mm 1 mps 694 mmHg 34%
    10:00 +34°C° 0 mm 1 mps 694 mmHg 27%
    11:00 +34°C° 0 mm 1 mps 694 mmHg 26%
    12:00 +36°C° 0 mm 2 mps 694 mmHg 24%
    13:00 +36°C° 0 mm 2 mps 694 mmHg 23%
    14:00 +36°C° 0 mm 2 mps 694 mmHg 24%
    15:00 +36°C° 0 mm 2 mps 694 mmHg 26%
    16:00 +36°C° 0 mm 2 mps 694 mmHg 27%
    17:00 +34°C° 0 mm 2 mps 693 mmHg 38%
    18:00 +31°C° 0 mm 1 mps 693 mmHg 49%
    19:00 +29°C° 0 mm 1 mps 693 mmHg 60%
    20:00 +27°C° 0 mm 1 mps 693 mmHg 64%
    21:00 +25°C° 0 mm 1 mps 692 mmHg 67%
    22:00 +23°C° 0 mm 1 mps 692 mmHg 70%
    23:00 +22°C° 0 mm 1 mps 692 mmHg 69%

    Day after tomorrow, 27 June, Thursday

    Time Temperature Precipitation Wind Pressure Humidity
    00:00 +22°C° 0 mm 1 mps 692 mmHg 68%
    01:00 +22°C° 0 mm 1 mps 692 mmHg 67%
    02:00 +21°C° 0 mm 1 mps 692 mmHg 67%
    03:00 +21°C° 0 mm 1 mps 691 mmHg 66%
    04:00 +21°C° 0 mm 1 mps 691 mmHg 65%
    05:00 +23°C° 0 mm 1 mps 691 mmHg 61%
    06:00 +25°C° 0 mm 1 mps 692 mmHg 57%
    07:00 +27°C° 0 mm 1 mps 692 mmHg 54%
    08:00 +29°C° 0 mm 1 mps 692 mmHg 47%
    09:00 +31°C° 0 mm 1 mps 692 mmHg 40%
    10:00 +34°C° 0 mm 2 mps 693 mmHg 32%
    11:00 +35°C° 0 mm 2 mps 692 mmHg 32%
    12:00 +35°C° 0 mm 3 mps 692 mmHg 32%
    13:00 +35°C° 0 mm 3 mps 692 mmHg 32%
    14:00 +35°C° 0 mm 3 mps 692 mmHg 35%
    15:00 +34°C° 0 mm 3 mps 691 mmHg 37%
    16:00 +34°C° 0 mm 3 mps 691 mmHg 40%
    17:00 +30°C° 0.4 mm 3 mps 691 mmHg 54%
    18:00 +28°C° 0.4 mm 2 mps 690 mmHg 67%
    19:00 +26°C° 0.4 mm 2 mps 690 mmHg 81%
    20:00 +24°C° 0.2 mm 1 mps 690 mmHg 85%
    21:00 +23°C° 0.2 mm 1 mps 690 mmHg 90%
    22:00 +21°C° 0.2 mm 1 mps 690 mmHg 94%
    23:00 +20°C° 0 mm 1 mps 690 mmHg 95%

    28 June, Friday

    Time Temperature Precipitation Wind Pressure Humidity
    00:00 +20°C° 0 mm 1 mps 690 mmHg 96%
    01:00 +20°C° 0 mm 1 mps 690 mmHg 96%
    02:00 +20°C° 0 mm 1 mps 689 mmHg 97%
    03:00 +19°C° 0 mm 1 mps 689 mmHg 97%
    04:00 +19°C° 0 mm 1 mps 689 mmHg 97%
    05:00 +20°C° 0 mm 1 mps 689 mmHg 96%
    06:00 +21°C° 0 mm 1 mps 689 mmHg 94%
    07:00 +23°C° 0 mm 1 mps 689 mmHg 92%
    08:00 +24°C° 0 mm 1 mps 689 mmHg 83%
    09:00 +25°C° 0 mm 1 mps 689 mmHg 75%
    10:00 +27°C° 0 mm 2 mps 690 mmHg 66%
    11:00 +28°C° 0 mm 2 mps 690 mmHg 58%
    12:00 +29°C° 0 mm 2 mps 690 mmHg 50%
    13:00 +30°C° 0 mm 2 mps 690 mmHg 41%
    14:00 +30°C° 0 mm 3 mps 689 mmHg 41%
    15:00 +29°C° 0 mm 3 mps 689 mmHg 40%
    16:00 +29°C° 0 mm 3 mps 689 mmHg 40%
    17:00 +27°C° 0 mm 3 mps 689 mmHg 48%
    18:00 +26°C° 0 mm 2 mps 689 mmHg 56%
    19:00 +24°C° 0 mm 2 mps 689 mmHg 64%
    20:00 +22°C° 0 mm 1 mps 689 mmHg 72%
    21:00 +20°C° 0 mm 1 mps 689 mmHg 80%
    22:00 +16°C° 0 mm 1 mps 688 mmHg 88%
    23:00 +16°C° 0 mm 1 mps 688 mmHg 88%

    29 June, Saturday

    Time Temperature Precipitation Wind Pressure Humidity
    00:00 +16°C° 0 mm 1 mps 688 mmHg 88%
    01:00 +15°C° 0 mm 1 mps 688 mmHg 88%
    02:00 +15°C° 0 mm 1 mps 688 mmHg 87%
    03:00 +15°C° 0 mm 1 mps 688 mmHg 86%
    04:00 +15°C° 0 mm 1 mps 687 mmHg 85%
    05:00 +16°C° 0 mm 0 mps 688 mmHg 76%
    06:00 +19°C° 0 mm 0 mps 688 mmHg 67%
    07:00 +21°C° 0 mm 0 mps 689 mmHg 58%
    08:00 +23°C° 0 mm 0 mps 689 mmHg 51%
    09:00 +27°C° 0 mm 1 mps 689 mmHg 43%
    10:00 +29°C° 0 mm 1 mps 690 mmHg 36%
    11:00 +30°C° 0 mm 1 mps 690 mmHg 33%
    12:00 +31°C° 0 mm 1 mps 690 mmHg 31%
    13:00 +32°C° 0 mm 2 mps 689 mmHg 28%
    14:00 +32°C° 0 mm 2 mps 689 mmHg 30%
    15:00 +31°C° 0 mm 2 mps 689 mmHg 31%
    16:00 +31°C° 0 mm 2 mps 689 mmHg 32%
    17:00 +30°C° 0 mm 1 mps 689 mmHg 44%
    18:00 +28°C° 0 mm 1 mps 688 mmHg 55%
    19:00 +26°C° 0 mm 1 mps 688 mmHg 66%
    20:00 +24°C° 0 mm 1 mps 688 mmHg 70%
    21:00 +22°C° 0 mm 1 mps 688 mmHg 75%
    22:00 +20°C° 0 mm 1 mps 688 mmHg 80%
    23:00 +19°C° 0 mm 2 mps 688 mmHg 81%

    30 June, Sunday

    Time Temperature Precipitation Wind Pressure Humidity
    00:00 +19°C° 0 mm 2 mps 688 mmHg 83%
    01:00 +19°C° 0 mm 2 mps 688 mmHg 85%
    02:00 +19°C° 0 mm 2 mps 688 mmHg 85%
    03:00 +19°C° 0 mm 2 mps 687 mmHg 85%
    04:00 +18°C° 0 mm 2 mps 687 mmHg 84%
    05:00 +21°C° 0 mm 1 mps 687 mmHg 78%
    06:00 +23°C° 0 mm 1 mps 688 mmHg 72%
    07:00 +25°C° 0 mm 1 mps 688 mmHg 66%
    08:00 +27°C° 0 mm 1 mps 689 mmHg 56%
    09:00 +30°C° 0 mm 1 mps 689 mmHg 46%
    10:00 +32°C° 0 mm 1 mps 690 mmHg 36%
    11:00 +33°C° 0 mm 1 mps 690 mmHg 33%
    12:00 +34°C° 0 mm 1 mps 690 mmHg 30%
    13:00 +35°C° 0 mm 1 mps 690 mmHg 26%
    14:00 +35°C° 0 mm 2 mps 689 mmHg 28%
    15:00 +35°C° 0 mm 2 mps 689 mmHg 29%
    16:00 +34°C° 0 mm 2 mps 689 mmHg 30%
    17:00 +32°C° 0 mm 2 mps 689 mmHg 40%
    18:00 +30°C° 0 mm 1 mps 689 mmHg 50%
    19:00 +28°C° 0 mm 1 mps 689 mmHg 60%
    20:00 +26°C° 0 mm 1 mps 688 mmHg 64%
    21:00 +23°C° 0 mm 1 mps 688 mmHg 68%
    22:00 +21°C° 0 mm 1 mps 688 mmHg 72%
    23:00 +21°C° 0 mm 1 mps 688 mmHg 72%
    Show more